sat.trackr.live / text

‹ back to catalog

ONEWEB-0254

NORAD 48972 · 2021-060F

PAYLOAD ACTIVE UNKNOWN

§ Identity

Operator
Country
UK
Launch date
2021-07-01
Launch site
VOSTO
Launch vehicle
Mass (kg)
RCS (m²)

Purposes: comms

External: N2YO · Heavens-Above · Gunter

§ Orbital elements

Epoch: 2026-05-25T04:58:12.906912Z

Period
109.37 min
Inclination
87.9108°
Eccentricity
0.0001682
Mean motion
13.16593425 rev/d
Perigee alt
1,196.5 km
Apogee alt
1,199.0 km
Semi-major
7,575.9 km
B*
6.2182e-5
RAAN
233.3350°
Arg perigee
100.7273°
Mean anomaly
259.4047°
Rev number
23,656

§ Raw data

ONEWEB-02541 48972U 21060F   26145.20709383  .00000037  00000+0  62182-4 0  99912 48972  87.9108 233.3350 0001682 100.7273 259.4047 13.16593425236563

JSON: /api/v1/satellites/48972 · /tle

For live sub-satellite position, see the globe view (requires WebGL).

§ Visibility from observer

Set your observer location to see the next 7 days of passes ≥ 10°. The values pass through the URL so the page stays shareable.

No JS? Fill the form by hand. The geolocation button needs JavaScript.